Location: Newark
(51.0500°N, 12.4500°E)
Time: 00:41:27
(UTC+00:00)

Vanguard 1 - Pass Details

Date: 20 February 2020
Orbit: 649 x 3834 km, 34.2° (Epoch: 28 March)

Event Time Altitude Azimuth Distance (km) Brightness Sun altitude
Rises 12:25:31 0° 266° (W) 6,424 14.5 26.5°
Reaches altitude 10° 12:31:32 10° 254° (WSW) 4,783 14.1 26.2°
Maximum altitude 12:39:58 22° 211° (SSW) 2,960 14.9 25.8°
Drops below altitude 10° 12:45:42 10° 164° (SSE) 3,108 13.6 25.5°
Sets 12:48:37 0° 148° (SSE) 3,733 13.5 25.3°
